GFSFLT1_sfc_temp_123.txt.gz
Temp
71 68 69 72 72 74 72 71 70 70 70 67 65 65 65 66 67 67 67 67 67 66 65 64 64 63 62 62 62 61 61 62
72 71 69 68 69 68 69 69 70 69 69 66 64 65 66 65 67 67 67 67 67 66 65 64 65 64 62 62 61 61 61 63
69 70 68 67 65 67 68 69 70 70 71 71 68 68 65 67 66 67 67 67 67 67 66 65 66 65 63 62 63 60 61 62
69 70 69 63 62 60 68 70 70 70 70 65 63 63 62 62 63 65 67 66 67 67 66 65 64 64 63 63 63 62 59 61
65 62 60 56 54 59 60 61 61 63 64 63 63 63 61 64 65 66 65 66 66 67 66 65 65 65 64 63 64 63 62 59
55 56 57 56 57 58 58 59 59 60 60 62 61 61 61 61 61 62 62 64 65 66 67 65 65 64 64 64 62 62 62 60
55 57 57 55 56 56 56 56 56 56 56 56 56 55 56 58 60 60 61 62 64 65 66 65 66 64 63 63 62 62 61 61
53 51 51 51 51 52 54 53 52 52 52 52 53 53 54 54 58 60 60 60 61 63 63 63 64 63 63 63 62 61 61 60
49 49 49 50 49 49 50 50 49 50 50 49 50 50 51 52 55 58 60 62 63 64 63 63 64 63 61 62 61 61 60 60
46 48 48 47 47 47 47 47 47 47 48 48 47 47 47 48 50 53 55 62 63 63 62 63 63 63 62 61 61 60 60 60
45 45 45 45 46 46 46 46 45 46 46 46 47 45 46 47 48 49 52 56 62 62 62 62 63 62 62 61 61 60 59 59
42 43 44 43 43 43 43 42 42 43 43 43 43 43 44 45 46 49 51 54 57 62 62 62 62 61 61 60 60 59 58 58
40 41 41 41 40 40 39 40 39 40 41 41 42 43 44 44 45 47 51 54 57 62 63 62 63 62 61 60 59 58 58 57
39 39 38 38 39 39 39 39 40 39 40 40 41 41 42 42 43 46 50 51 59 62 63 62 62 61 60 60 59 58 58 58
37 37 36 37 37 37 38 38 39 38 39 38 39 40 40 41 43 45 49 52 59 61 62 62 61 61 60 59 58 58 57 57
35 35 35 36 35 36 37 38 38 38 37 37 38 40 40 41 43 45 47 51 58 61 61 61 61 60 59 58 58 57 56 56
35 35 35 34 34 34 35 36 37 37 36 36 38 38 39 39 41 43 46 48 57 60 60 60 58 58 47 47 54 56 56 55
34 33 32 33 32 33 33 35 36 36 35 36 36 36 37 38 40 42 44 46 56 59 59 59 58 58 45 46 46 57 56 55
32 32 31 31 32 32 34 35 34 34 33 33 34 34 34 36 38 40 42 44 52 58 58 58 57 56 44 44 44 55 55 54

GFSFLT1_sfc_temp_126.txt.gz
Temp
71 66 71 75 72 72 70 69 68 67 66 65 64 64 65 65 65 65 65 66 66 65 64 63 64 63 62 61 62 61 62 62
71 70 70 71 72 71 69 68 68 67 66 64 64 64 66 65 66 66 66 66 66 66 65 63 63 63 63 63 63 61 61 62
69 70 64 64 67 69 69 69 69 68 69 68 64 66 66 66 67 66 66 66 66 66 66 64 64 63 63 63 63 60 61 62
65 67 65 63 61 64 67 68 70 68 69 65 61 62 63 64 64 65 66 66 66 66 66 65 64 64 63 63 63 62 60 61
66 65 55 54 53 56 59 61 62 63 64 65 63 64 63 63 65 66 66 66 66 67 66 65 65 65 63 63 64 64 63 59
53 53 53 53 53 53 55 56 56 58 60 63 62 60 61 60 61 63 63 64 65 66 66 65 65 65 64 63 63 63 63 62
52 53 53 52 53 52 53 53 54 55 56 56 57 57 57 60 61 60 61 62 64 64 65 65 66 66 65 64 64 63 62 63
45 45 45 46 46 49 50 50 50 51 51 52 51 52 54 55 57 61 60 61 62 64 64 65 65 64 64 64 63 63 62 62
42 43 43 45 46 46 47 47 46 48 49 48 48 49 50 52 53 54 57 60 61 63 64 65 65 65 63 63 63 63 62 62
41 41 42 43 42 42 43 44 45 46 46 46 46 47 47 46 47 49 51 54 59 61 61 63 64 64 62 62 61 61 61 61
41 41 41 41 41 41 42 43 43 43 44 44 44 44 45 45 45 46 48 50 53 55 61 61 63 63 63 62 62 61 60 60
39 40 41 41 41 42 41 41 40 40 41 41 42 42 43 44 44 45 46 48 50 53 55 61 62 63 63 62 61 61 60 60
38 37 39 38 38 38 38 39 38 39 40 41 41 43 43 42 42 44 45 46 49 52 56 57 62 62 62 61 60 60 59 58
37 37 36 37 37 37 37 38 38 38 39 38 39 39 39 39 40 42 44 45 47 51 55 57 61 63 61 61 61 60 60 59
34 34 34 35 36 36 36 37 38 38 38 38 36 36 37 39 41 41 42 45 46 50 53 59 61 62 62 61 60 60 59 59
32 32 32 33 34 34 35 36 37 37 37 36 36 37 38 39 39 40 41 43 46 49 52 58 61 61 61 60 60 59 58 57
32 32 32 32 32 32 34 35 35 36 35 35 36 36 36 37 38 39 40 42 45 48 51 58 60 60 49 48 55 58 57 57
30 30 30 31 30 32 32 34 35 34 34 33 34 34 34 35 37 38 39 40 42 44 48 57 59 60 46 46 46 58 57 56
30 30 30 30 31 32 33 34 34 33 32 32 32 32 32 34 35 36 37 39 39 42 46 55 59 58 44 45 44 57 56 56

GFSFLT1_sfc_temp_129.txt.gz
Temp
69 71 75 79 81 78 76 74 72 71 73 72 71 69 69 69 69 70 71 70 70 69 71 69 73 70 69 69 69 69 69 70
67 69 72 75 77 76 75 73 73 71 72 71 71 68 69 69 73 73 71 71 69 69 72 72 71 68 68 67 69 67 65 65
63 67 70 72 74 75 75 74 73 73 74 74 73 72 72 74 73 73 73 73 71 71 71 70 69 67 67 66 67 64 65 65
61 64 67 70 71 74 74 75 74 73 74 73 73 71 71 69 68 70 71 73 73 73 71 70 68 69 66 65 67 68 63 63
61 63 66 71 70 71 76 75 75 74 74 72 71 71 69 70 72 68 69 71 72 73 71 70 69 68 67 66 67 68 68 62
60 62 66 60 61 66 69 69 72 72 73 72 70 70 72 72 69 67 67 67 66 66 65 65 67 67 68 67 66 67 69 68
56 56 56 56 57 58 59 60 57 58 62 66 69 68 67 66 67 65 66 66 63 62 62 62 65 66 67 67 68 67 67 69
45 46 48 50 52 53 55 56 54 54 52 52 54 57 59 62 66 66 67 66 65 63 64 64 66 67 67 67 66 66 67 66
41 42 44 46 48 49 50 52 51 51 52 53 53 51 54 56 58 60 64 65 67 68 67 67 67 67 66 65 65 66 66 66
40 41 41 44 44 43 45 47 48 48 48 49 50 52 53 53 55 56 59 58 60 62 64 65 65 65 66 65 64 64 65 65
40 40 40 42 42 43 43 45 46 46 47 47 48 50 49 52 52 52 54 55 56 57 58 61 63 65 65 64 63 64 64 65
37 39 40 40 41 42 42 43 43 44 45 45 46 46 47 48 48 48 49 52 54 55 56 58 60 64 64 63 63 63 62 63
35 36 37 38 38 39 39 40 41 42 44 44 44 44 46 45 46 47 49 49 52 53 54 55 59 61 65 63 62 62 61 61
32 33 33 34 35 36 38 39 40 40 42 42 42 42 41 43 44 46 47 48 49 51 53 54 56 60 62 64 62 61 61 62
31 31 31 32 34 35 37 37 36 36 39 40 40 40 41 42 43 43 44 46 47 49 52 53 55 56 60 63 65 61 61 62
30 29 30 31 32 33 36 36 37 38 38 37 38 39 40 40 40 42 42 43 45 48 50 52 55 56 58 61 63 61 61 62
31 31 31 31 31 33 34 35 35 37 36 36 37 38 38 39 40 40 42 42 43 44 47 50 52 56 51 47 55 60 60 61
29 30 30 30 31 32 32 34 36 35 36 36 35 36 37 37 38 39 39 39 40 41 43 46 49 52 48 47 46 61 60 60
29 29 30 31 32 32 33 33 33 34 34 34 34 34 35 35 36 37 37 38 38 39 41 44 45 49 46 45 44 59 59 60

GFSFLT1_sfc_temp_132.txt.gz
Temp
76 78 80 82 84 84 85 86 80 78 76 75 79 81 79 83 83 82 79 74 74 74 78 74 78 81 76 75 74 78 76 78
76 75 77 77 78 79 82 84 81 79 76 74 75 73 73 77 81 80 81 75 73 72 75 75 76 80 79 73 73 72 72 75
73 74 74 73 75 77 80 83 83 81 80 78 79 79 79 78 78 79 79 73 72 71 75 80 79 80 77 71 73 69 69 71
70 71 71 72 72 74 77 82 84 81 81 81 79 80 81 79 80 80 80 79 75 71 73 80 79 76 73 70 71 71 66 67
64 67 70 71 72 74 76 81 84 83 81 81 76 77 77 80 80 82 82 80 79 78 78 74 74 71 71 69 70 71 72 66
59 69 70 73 73 73 77 79 83 84 81 80 78 77 79 81 80 79 76 75 78 76 74 73 69 70 68 66 65 67 71 71
49 54 63 66 68 71 74 76 80 81 76 77 76 76 78 78 71 71 72 71 70 70 68 66 68 63 64 66 67 66 66 68
41 43 45 49 53 58 59 57 53 57 57 59 68 75 71 71 71 68 67 65 64 65 69 66 62 63 64 67 67 66 66 66
37 40 42 44 45 50 52 52 51 52 52 53 55 58 61 62 64 65 67 67 70 72 71 72 72 68 70 68 67 67 68 66
35 37 39 42 43 44 46 50 50 50 52 53 56 56 57 61 60 63 68 70 72 70 71 75 74 73 70 70 68 67 66 67
34 35 36 40 42 44 46 48 49 50 51 53 56 58 58 59 60 62 62 66 67 67 68 69 64 66 68 68 66 66 65 66
32 32 34 37 40 42 44 43 44 48 51 53 53 54 56 57 58 59 58 59 61 61 63 66 66 67 67 65 65 64 63 64
32 32 34 36 37 41 41 42 41 47 50 51 51 51 52 53 54 53 52 57 59 59 62 62 64 66 67 67 67 65 63 62
31 31 31 32 35 36 38 39 38 40 44 45 45 48 50 50 50 48 51 52 53 58 60 60 62 64 65 67 68 69 66 64
31 31 31 31 32 33 34 35 37 37 40 41 42 45 44 46 47 47 50 52 52 54 57 58 59 61 63 65 67 67 68 68
30 31 31 31 31 32 33 34 37 39 37 38 39 41 45 47 48 49 50 50 50 52 52 54 57 59 62 62 61 63 67 67
31 31 32 31 32 33 35 35 37 39 38 38 39 42 43 42 43 47 48 48 48 47 47 49 51 56 48 44 47 55 63 67
32 33 33 33 33 34 34 37 39 39 40 39 39 39 40 40 43 45 45 44 45 45 45 46 46 49 44 43 42 50 54 63
32 32 33 33 34 35 36 38 39 39 40 39 39 39 40 41 41 41 41 43 43 42 43 44 43 45 39 38 37 44 52 59

GFSFLT1_sfc_temp_135.txt.gz
Temp
81 83 84 84 85 84 85 85 84 84 82 80 82 83 84 85 83 85 83 75 77 83 85 81 81 82 78 80 82 82 82 80
71 74 80 81 81 80 81 82 83 85 82 77 78 80 82 81 85 84 84 77 75 77 82 80 76 82 80 74 74 78 78 80
62 66 70 73 77 78 79 80 82 84 85 82 80 81 83 84 85 85 84 82 74 73 74 81 74 79 81 78 71 70 72 73
55 58 62 67 71 76 78 79 80 82 84 82 78 80 81 79 83 84 83 83 74 72 73 79 80 80 81 77 71 69 68 70
49 50 54 60 64 76 78 78 79 81 79 81 76 78 78 79 80 81 82 81 77 73 72 77 81 81 80 73 70 70 71 69
44 43 47 56 59 64 73 77 78 79 80 79 78 75 80 82 82 80 81 80 80 77 74 76 78 75 69 68 68 67 68 67
46 43 44 48 54 56 61 66 75 78 78 77 78 75 78 81 80 81 80 80 79 80 78 76 74 71 71 68 67 67 67 67
42 39 37 39 45 49 51 54 58 60 66 66 77 73 76 81 81 81 79 75 76 77 75 72 71 72 72 67 64 63 64 66
39 38 35 35 39 42 45 48 49 53 53 52 59 59 68 76 80 78 77 74 74 75 72 69 69 72 71 70 68 65 66 67
35 36 35 35 37 39 41 44 48 50 49 51 52 53 58 58 60 65 66 67 67 68 67 67 68 71 73 72 71 68 68 68
34 33 33 34 35 39 41 44 46 48 49 50 50 52 54 55 58 57 60 61 66 66 67 68 67 68 70 73 73 72 71 70
32 32 32 33 34 35 39 40 41 44 46 49 50 50 54 56 54 53 55 59 63 65 68 69 70 70 69 67 68 70 70 70
32 33 32 32 32 34 37 39 42 45 45 46 47 48 52 51 51 53 56 57 61 63 65 66 67 68 70 70 69 65 64 64
32 32 32 32 32 32 34 37 35 38 41 42 45 47 51 49 48 51 56 56 57 60 62 62 64 66 67 68 69 70 70 70
32 32 32 32 32 32 33 34 33 35 39 39 40 42 46 46 48 51 54 55 56 57 57 57 58 60 64 65 67 67 69 70
32 32 32 32 32 32 33 34 36 38 37 39 39 43 45 46 49 50 52 52 53 54 51 53 55 56 61 55 58 60 62 65
34 35 35 34 34 34 37 39 39 41 38 38 41 41 44 45 45 47 46 49 50 50 49 48 48 52 43 39 41 46 50 52
34 35 35 34 34 36 36 37 41 38 40 40 40 41 42 42 43 43 44 45 47 45 45 45 45 46 39 38 37 41 42 45
36 36 35 34 35 36 37 37 38 37 37 39 41 42 41 41 42 42 41 44 45 44 43 42 41 42 37 36 36 39 44 48

GFSFLT1_sfc_temp_138.txt.gz
Temp
63 63 63 65 67 70 74 76 74 73 75 75 77 75 80 79 80 82 79 78 77 76 76 75 74 74 72 73 71 71 70 70
60 59 59 60 60 62 64 65 68 73 74 71 72 73 74 74 79 77 77 76 76 76 75 74 75 74 73 72 71 69 68 70
56 56 55 53 53 57 62 62 62 74 77 76 73 72 73 74 77 77 77 76 74 74 75 75 75 74 72 71 70 66 68 69
51 52 51 50 50 52 57 58 61 71 74 75 70 73 71 71 72 77 76 75 74 74 74 74 73 73 71 70 70 69 66 66
48 48 48 47 47 50 51 54 57 63 73 73 68 68 68 73 72 77 77 77 73 73 73 73 72 72 71 71 71 69 67 65
44 45 46 48 46 46 47 49 53 57 57 69 69 64 68 71 71 73 76 76 74 72 72 72 72 71 71 70 69 68 67 66
42 42 44 44 44 42 44 46 48 52 55 57 63 64 65 68 70 70 72 74 71 71 71 71 72 71 70 68 68 67 67 66
38 37 37 39 39 40 42 42 42 48 51 53 57 57 63 66 69 70 71 72 72 70 69 69 70 71 69 68 67 66 67 66
37 36 35 36 37 38 38 39 39 43 48 51 54 55 57 62 68 71 74 74 73 72 70 70 71 72 69 68 67 65 65 63
35 36 35 35 35 35 36 37 37 41 44 49 50 51 52 52 57 60 71 74 73 73 72 71 72 70 68 66 64 63 62 62
35 34 33 35 35 35 37 36 36 39 43 45 48 48 50 49 51 53 57 60 65 66 66 66 66 67 67 66 66 66 64 64
33 33 33 33 34 34 34 35 35 37 40 43 46 47 47 47 48 50 51 54 56 58 59 60 62 62 62 63 65 66 65 64
34 34 33 33 32 32 32 34 33 34 37 42 40 43 44 43 45 48 49 50 54 54 55 57 60 62 63 63 63 63 62 63
33 33 32 32 32 32 32 33 33 33 36 39 39 39 40 42 42 45 47 47 51 52 53 52 53 56 59 60 61 61 61 62
33 33 33 33 32 32 32 32 33 33 35 36 37 38 38 39 42 43 45 45 46 49 51 51 52 55 51 48 50 50 52 57
34 33 33 33 32 33 34 34 35 35 34 35 35 39 38 38 40 42 43 44 44 45 46 48 49 49 43 40 41 44 45 47
36 36 34 33 33 33 35 36 35 35 35 35 35 36 39 40 40 40 41 42 44 44 44 44 44 44 37 37 37 38 41 42
36 36 35 33 32 34 33 35 37 35 35 36 36 38 38 38 40 41 41 41 42 42 42 42 41 40 36 36 36 37 39 41
37 37 34 33 34 34 35 35 35 34 34 35 36 36 37 37 37 38 40 41 39 39 39 40 40 40 36 35 35 37 38 40

GFSFLT1_sfc_temp_141.txt.gz
Temp
53 54 54 53 51 51 52 53 55 56 58 60 63 67 71 71 70 74 74 75 74 73 73 72 72 71 71 70 67 66 67 68
51 51 51 50 50 49 48 49 50 53 54 56 57 68 68 69 72 74 75 74 74 73 73 71 73 72 71 70 67 66 64 67
47 47 46 46 47 47 46 46 47 49 53 55 56 62 66 69 71 74 73 76 73 74 73 72 72 71 69 69 70 64 64 64
42 43 42 43 43 44 44 44 45 48 51 53 54 56 62 65 67 69 73 75 76 73 74 72 72 72 70 69 69 70 65 63
41 40 39 39 40 42 42 43 45 48 48 49 50 50 55 64 67 71 72 75 75 72 73 73 72 72 71 69 70 69 68 65
38 38 38 39 39 40 41 42 43 45 46 49 50 50 54 57 63 66 68 71 72 73 71 72 71 72 70 69 68 67 67 66
38 38 38 37 38 38 40 40 40 43 44 47 48 50 51 53 56 62 66 68 71 73 71 72 70 70 68 68 68 68 67 67
35 34 35 35 35 37 38 38 38 40 41 44 47 49 50 50 54 57 62 65 67 70 70 70 71 69 69 69 68 67 67 65
35 34 34 35 35 36 35 35 36 39 39 41 43 48 48 49 49 53 59 63 66 70 67 70 71 71 69 68 67 66 66 65
33 34 35 34 34 34 34 35 36 37 38 39 41 45 46 46 49 52 55 54 56 57 65 67 68 71 69 67 66 65 65 63
34 34 33 34 34 34 35 35 35 36 36 38 39 39 44 45 48 48 49 50 53 54 59 65 66 68 70 67 65 65 63 59
33 32 33 33 34 34 34 34 35 35 35 36 37 37 41 43 44 46 47 49 49 50 52 64 66 67 67 65 63 62 62 60
34 32 33 33 33 33 33 34 34 34 34 35 36 37 39 40 41 43 45 46 47 48 48 53 56 56 56 57 57 58 61 61
34 32 31 31 31 32 33 33 33 33 33 33 34 35 38 38 38 40 42 44 45 46 45 45 44 44 46 47 48 48 49 49
34 32 30 30 30 32 33 33 33 32 33 32 33 33 36 38 38 39 39 42 41 43 43 42 39 40 40 41 43 43 44 46
33 32 31 30 30 32 33 34 34 33 33 33 33 34 33 36 38 38 37 37 40 39 40 39 37 38 38 36 37 38 40 42
34 33 32 31 31 31 33 33 34 35 34 33 34 34 36 35 36 37 36 35 34 35 36 36 33 35 34 35 35 37 39 40
34 32 31 31 31 32 32 33 35 34 34 35 35 36 35 35 35 35 36 34 34 34 34 34 33 32 33 33 34 36 37 38
33 31 31 31 32 32 33 33 34 33 33 34 34 35 34 34 33 33 34 34 34 34 34 34 33 33 33 33 33 34 36 36

GFSFLT1_sfc_temp_144.txt.gz
Temp
47 47 46 45 45 46 47 47 46 46 48 50 53 53 56 57 65 70 73 73 73 70 72 71 70 69 68 68 68 67 67 67
46 45 44 43 43 43 43 43 43 44 44 45 46 48 52 54 59 69 72 73 72 71 71 71 70 70 70 69 68 65 65 66
42 42 41 40 40 41 41 41 42 43 45 45 46 49 51 53 56 64 70 71 72 72 72 71 71 71 70 69 69 67 66 65
38 39 39 39 38 38 39 41 41 44 44 46 47 49 50 52 55 58 67 69 71 71 72 70 70 71 70 69 70 69 66 63
38 37 37 37 37 38 39 40 41 43 44 44 43 44 45 51 51 56 58 66 69 71 71 71 70 70 71 70 71 70 70 66
35 35 36 38 37 37 39 41 41 41 42 43 42 43 46 50 52 53 55 60 66 68 70 69 68 68 71 70 69 68 69 68
35 37 38 37 38 38 39 39 40 41 40 41 41 40 41 46 49 50 53 56 62 65 67 67 66 67 67 69 69 68 68 68
33 35 35 35 36 36 37 37 37 39 39 39 40 41 41 43 46 47 48 51 57 62 62 64 66 66 65 68 68 68 67 67
32 35 35 35 35 35 36 36 35 37 37 37 39 40 40 41 44 44 49 51 56 56 55 59 63 67 66 64 69 68 67 67
32 34 35 35 34 34 34 35 36 36 36 36 37 38 39 39 41 44 47 50 52 54 53 55 60 61 64 63 67 68 67 66
34 32 32 32 33 34 34 36 35 35 35 35 37 37 37 38 40 41 44 48 48 50 50 53 58 62 61 62 65 67 66 65
34 30 30 31 31 34 34 35 35 34 34 35 35 35 36 37 37 39 42 45 48 47 45 45 49 60 53 48 59 66 64 63
33 28 28 29 28 32 33 34 33 34 34 35 35 36 35 35 36 36 39 42 46 44 43 42 41 44 45 42 44 65 62 60
26 25 26 30 28 31 32 33 33 34 34 34 34 34 34 33 35 34 37 39 42 42 40 38 38 37 38 37 37 45 52 52
25 25 26 28 28 30 30 32 33 34 34 33 33 32 32 32 34 35 34 37 38 39 38 38 37 36 35 35 34 37 45 46
26 23 26 28 28 30 31 32 33 34 34 33 33 34 32 32 32 34 34 35 35 36 36 35 35 34 34 34 34 34 39 43
30 31 29 29 30 30 31 32 33 34 34 33 34 34 34 32 32 32 32 32 32 32 32 32 31 32 34 34 34 32 33 37
29 30 28 29 30 31 29 31 34 34 33 34 34 34 33 32 32 32 31 31 31 29 29 30 30 31 33 33 33 32 32 33
29 28 27 29 30 29 29 30 32 32 32 32 33 33 32 32 31 30 30 31 30 29 28 29 29 31 32 32 32 31 32 32